Kirksville, MO

9:09 AM CST on December 18, 2017 (GMT -0600)
Kirksville Regional

Weather History for KIRK - August, 2012

Change the Weather History Date:

Wednesday, August 15, 2012

  Actual Average Record
Temperature  
Mean Temperature 72 °F 74 °F  
Max Temperature 92 °F 85 °F 105 °F (1936)
Min Temperature 52 °F 64 °F 47 °F (1964)
Degree Days  
Heating Degree Days 0 0  
Month to date heating degree days 3 0  
Since 1 June heating degree days 13 17  
Since 1 July heating degree days 3 1  
Cooling Degree Days 7 9  
Month to date cooling degree days 141 150  
Year to date cooling degree days 1080 717  
Since 1 June cooling degree days 936 655  
Growing Degree Days 22 (Base 50)    
Moisture  
Dew Point 57 °F    
Average Humidity 66    
Maximum Humidity 100    
Minimum Humidity 32    
Precipitation  
Precipitation 0.00 in 0.11 in 3.05 in (1932)
Month to date precipitation 0.21 1.68  
Year to date precipitation 15.56 25.27  
Sea Level Pressure  
Sea Level Pressure 29.91 in    
Wind  
Wind Speed 6 mph (SSW)    
Max Wind Speed 17 mph    
Max Gust Speed 23 mph    
Visibility 10 miles    
Events      
T = Trace of Precipitation, MM = Missing Value Source: NWS Daily Summary

Daily Weather History Graph

Daily Weather History Graph

Search for Another Location

Airport or City:

Trip Planner

Search our weather history database for the weather conditions in past years. The results will help you decide how hot, cold, wet, or windy it might be!

Date:

Astronomy

Aug. 15, 2012 Rise Set
Actual Time 6:22 AM CDT 8:06 PM CDT
Civil Twilight 5:53 AM CDT 8:35 PM CDT
Nautical Twilight 5:17 AM CDT 9:10 PM CDT
Astronomical Twilight 4:40 AM CDT 9:47 PM CDT
Moon 4:19 AM CDT (8/15) 6:40 PM CDT (8/15)
Length of Visible Light 14h 42m
Length of Day
13h 44m
Waning Crescent, 4% of the Moon is Illuminated
Aug 15
Waning Crescent
Aug 17
New
Aug 24
First Quarter
Aug 31
Full
Sep 8
Last Quarter

Hourly Weather History & Observations

Time (CDT) Temp. Heat Index Dew Point Humidity Pressure Visibility Wind Dir Wind Speed Gust Speed Precip Events Conditions
12:55 AM 60.1 °F - 55.0 °F 83% 29.96 in 10.0 mi SW 4.6 mph - N/A   Clear
1:55 AM 57.9 °F - 55.0 °F 90% 29.97 in 10.0 mi WSW 4.6 mph - N/A   Clear
2:55 AM 57.0 °F - 55.0 °F 93% 29.97 in 10.0 mi South 3.5 mph - N/A   Clear
3:55 AM 55.9 °F - 55.0 °F 97% 29.96 in 10.0 mi Calm Calm - N/A   Clear
4:55 AM 57.9 °F - 55.9 °F 93% 29.97 in 10.0 mi Calm Calm - N/A   Partly Cloudy
5:55 AM 57.0 °F - 55.0 °F 93% 29.98 in 10.0 mi Calm Calm - N/A   Clear
6:55 AM 54.0 °F - 53.1 °F 97% 29.99 in 4.0 mi SSW 3.5 mph - N/A   Clear
7:55 AM 60.1 °F - 57.0 °F 90% 29.99 in 10.0 mi SSW 3.5 mph - N/A   Clear
8:55 AM 68.0 °F - 57.0 °F 68% 29.99 in 10.0 mi SSW 5.8 mph - N/A   Clear
9:55 AM 72.0 °F - 57.9 °F 61% 29.98 in 10.0 mi South 8.1 mph - N/A   Clear
10:55 AM 78.1 °F - 57.0 °F 48% 29.97 in 10.0 mi SSW 9.2 mph - N/A   Clear
11:55 AM 84.0 °F 83.0 °F 55.9 °F 38% 29.94 in 10.0 mi SSW 11.5 mph 23.0 mph N/A   Clear
12:55 PM 84.9 °F 84.2 °F 57.9 °F 40% 29.92 in 10.0 mi SSW 9.2 mph 21.9 mph N/A   Clear
1:55 PM 87.1 °F 86.1 °F 57.9 °F 37% 29.89 in 10.0 mi Variable 6.9 mph - N/A   Clear
2:55 PM 89.1 °F 87.7 °F 57.0 °F 34% 29.88 in 10.0 mi SW 12.7 mph - N/A   Clear
3:55 PM 91.0 °F 89.7 °F 57.0 °F 32% 29.85 in 10.0 mi South 10.4 mph 20.7 mph N/A   Clear
4:55 PM 91.0 °F 89.7 °F 57.0 °F 32% 29.84 in 10.0 mi SSW 9.2 mph 17.3 mph N/A   Clear
5:55 PM 90.0 °F 88.8 °F 57.9 °F 34% 29.83 in 10.0 mi SSW 9.2 mph - N/A   Clear
6:55 PM 87.1 °F 86.5 °F 59.0 °F 39% 29.83 in 10.0 mi South 8.1 mph - N/A   Clear
7:55 PM 80.1 °F 80.6 °F 57.9 °F 47% 29.83 in 10.0 mi South 6.9 mph - N/A   Clear
8:55 PM 73.0 °F - 59.0 °F 61% 29.83 in 10.0 mi SE 3.5 mph - N/A   Clear
9:55 PM 72.0 °F - 59.0 °F 64% 29.84 in 10.0 mi SSE 6.9 mph - N/A   Clear
10:55 PM 73.0 °F - 57.9 °F 59% 29.85 in 10.0 mi South 6.9 mph - N/A   Clear
11:55 PM 73.0 °F - 57.9 °F 59% 29.85 in 10.0 mi SSE 8.1 mph - N/A   Clear